CAPE
632 557 352 740 88 26 24 40 14 10 3 2 0 0 0 0 0 0 0 0 0 195 732 123 358 947 759 988 730 1078 988 901 1059 1125 981 1249 1174 1203 1144 1358 1297 1274 1436 1322 1405 1319 1289 931 681
286 364 848 938 26 1 15 43 21 7 9 16 7 0 0 0 0 0 0 0 0 267 887 592 445 883 1054 1362 1244 1025 819 858 1067 1097 1163 994 1162 1298 1251 1185 927 1361 1412 1285 1132 1187 1333 1205 752
471 875 1161 161 39 15 24 66 70 73 51 38 0 0 0 0 0 0 0 5 81 408 525 513 923 1021 1163 1077 1091 937 1023 898 778 1002 1128 1195 821 704 1357 1224 1032 660 1140 1280 1106 1040 1129 1226 1182
1264 1447 1309 91 26 39 37 78 93 146 64 0 0 0 0 0 0 0 1 29 125 323 587 1094 1435 1196 1222 1197 1115 1081 1188 964 951 1067 895 958 1022 1001 937 746 620 478 915 1212 1156 1127 1027 1000 364
603 104 67 61 39 11 79 111 96 124 86 5 0 0 0 0 0 0 0 13 36 226 952 1388 1255 1203 1436 1145 1161 1130 1089 1087 1082 998 934 967 854 672 667 955 1102 844 481 535 631 672 822 598 449
104 0 18 22 27 65 136 120 97 91 25 0 0 0 0 0 64 49 115 139 277 146 1023 1202 1266 1185 1267 1204 1202 1167 1110 806 1159 1136 1123 1169 985 711 873 736 832 826 532 609 510 662 692 616 621
15 51 28 12 33 61 95 122 84 48 21 3 0 0 0 71 48 23 114 306 290 455 685 1067 936 1090 1327 1502 1224 1341 1045 1139 725 514 732 782 961 957 802 640 731 817 808 647 585 592 593 592 483
142 136 75 38 11 43 107 109 58 58 28 0 0 0 0 32 20 79 108 111 108 270 387 322 531 986 989 1170 1291 945 922 967 780 1118 559 410 407 755 637 575 674 760 591 719 558 596 547 418 120
221 56 90 121 23 70 80 94 54 45 27 15 2 0 0 13 105 124 126 127 56 168 151 106 196 592 428 812 1040 723 908 1143 1108 1065 982 572 78 22 137 17 146 343 449 449 416 295 253 285 141
2 29 67 105 75 105 84 60 55 40 25 27 4 2 23 75 121 273 261 342 16 22 66 152 226 170 323 747 636 795 723 820 608 314 219 40 14 0 4 1 17 161 91 472 674 179 145 227 106
20 33 53 80 109 69 96 100 59 16 13 2 0 21 29 87 121 272 416 374 369 120 54 70 58 78 67 157 281 375 288 389 367 235 147 18 1 4 2 8 2 18 40 50 110 12 0 0 38
93 95 68 137 53 53 135 174 33 0 0 0 0 0 74 92 179 136 164 188 276 189 374 254 160 191 216 219 388 146 172 44 13 88 195 131 54 19 57 27 31 7 15 26 0 0 0 0 2
31 76 177 109 79 88 85 76 35 0 0 0 0 0 91 167 147 6 6 0 7 233 303 343 324 289 264 263 363 418 300 217 257 106 168 162 144 105 100 94 77 56 12 8 3 0 0 0 0
129 124 127 43 115 26 0 0 0 0 0 0 0 0 38 51 49 7 0 0 9 160 178 284 381 266 162 151 138 259 289 220 314 408 345 264 232 184 134 112 69 7 4 0 0 0 12 0 0
26 0 42 16 74 26 0 0 0 0 0 0 0 0 13 2 1 37 10 0 11 92 146 217 400 157 134 246 252 456 344 198 280 296 190 298 322 304 305 157 121 56 33 81 18 25 6 0 0
149 48 0 157 137 0 0 0 0 0 0 0 0 0 0 0 0 0 0 2 7 26 80 170 254 81 209 131 127 185 409 357 411 323 401 312 433 511 519 284 193 94 79 169 47 0 0 0 95
20 1 16 28 22 2 0 0 0 0 0 0 0 0 0 0 0 0 0 0 0 0 46 118 156 80 62 145 84 42 138 360 547 590 221 16 463 972 567 284 335 286 161 214 101 40 0 0 92
0 7 9 8 7 24 0 0 0 0 0 0 0 0 0 0 0 0 0 0 0 3 44 81 76 44 14 21 51 198 154 400 576 361 129 22 15 644 724 444 396 417 304 281 162 118 78 100 105
0 6 0 16 42 43 33 0 0 0 0 0 0 0 0 0 0 0 0 4 10 38 62 72 61 11 36 35 146 226 345 501 593 479 436 297 23 595 881 646 534 413 340 261 342 249 197 205 374
32 10 0 40 51 46 61 0 0 0 0 0 0 0 0 0 1 5 8 1 6 45 56 67 43 0 80 68 127 231 403 495 421 531 506 476 534 1010 1234 895 649 439 337 378 387 403 303 277 443
18 24 8 48 104 24 13 0 3 0 0 0 0 0 0 3 10 15 23 33 36 21 30 62 8 23 38 89 189 284 539 543 672 674 576 598 578 1159 1294 1043 782 543 326 409 515 588 445 396 538
0 10 43 37 37 0 0 5 12 17 0 0 0 0 0 2 0 4 24 52 110 109 49 39 3 0 45 99 213 424 673 765 538 405 545 593 1116 1329 1219 956 762 714 530 346 442 466 511 622 627
53 64 64 64 17 22 13 1 0 7 13 29 0 0 0 0 3 8 13 45 50 88 63 20 8 58 279 273 502 589 566 795 451 503 562 464 935 776 1453 1118 824 762 830 682 534 569 594 570 511
195 151 98 74 2 2 0 0 7 0 30 14 1 0 0 0 0 1 7 46 43 40 39 12 24 164 258 364 627 576 545 818 920 727 667 659 88 132 921 1432 1020 969 886 1003 1006 733 697 751 697
136 136 5 3 0 1 1 13 14 0 0 0 13 0 0 0 0 0 5 17 30 33 39 79 57 91 146 226 226 247 493 757 1119 966 634 803 637 523 514 1040 1536 1136 974 818 1006 849 863 929 915
93 2 0 0 4 0 0 27 31 23 283 73 5 7 0 1 5 0 9 0 0 27 89 88 89 75 143 111 184 394 567 802 1040 1018 796 843 764 593 339 106 929 1439 1266 906 828 1076 931 1051 1107
80 49 0 1 1 0 0 0 0 227 320 71 27 32 22 0 17 18 64 106 89 26 8 124 95 69 150 314 418 474 560 805 1005 1304 1356 1331 921 892 639 365 534 840 697 1107 1099 937 1082 1083 1082
2 0 0 0 0 0 0 0 0 227 302 185 73 27 60 24 0 6 13 40 48 57 25 58 114 120 156 330 680 851 823 929 1124 1273 1353 1364 1278 1058 936 766 719 309 5 461 1089 1155 893 1143 1015
3 0 0 0 0 0 0 0 0 29 185 290 266 145 0 11 9 4 0 9 79 2 41 132 265 349 306 388 582 817 1127 1344 1452 1452 1582 1319 1330 1255 961 703 518 178 0 8 618 1173 980 1085 1260
0 0 0 0 0 0 0 0 0 2 60 340 349 212 22 0 0 0 0 13 173 963 157 115 351 601 647 717 836 888 989 1232 1538 1708 1756 1732 1518 1601 1520 1257 799 324 0 0 60 284 490 597 650
CIN
-59 -53 -75 -33 -70 -86 -58 -28 -62 -85 -111 -99 -0 -0 -0 -0 -0 -0 -0 -0 -0 -31 -9 -69 -41 -7 -18 -2 -1 -0 -0 -1 -3 -0 -0 -0 -0 -0 -0 -0 -0 -0 -0 -0 -0 -0 -0 -0 -0
-127 -92 -20 -28 -47 -7 -40 -41 -37 -54 -88 -137 -125 -53 -0 -0 -0 -0 -0 -0 -0 -34 -1 -28 -31 -13 -3 -0 -0 -0 -0 -0 -0 -0 -0 -0 -0 -0 -0 -0 -0 -0 -0 -0 -0 -0 -0 -0 -0
-114 -47 -22 -60 -32 -32 -41 -34 -37 -57 -104 -105 -42 -0 -0 -0 -0 -0 -0 -65 -37 -25 -27 -17 -4 -0 -0 -1 -0 -4 -0 -0 -0 -0 -0 -0 -5 -15 -0 -1 -3 -3 -1 -0 -0 -0 -0 -0 -0
-55 -32 -36 -35 -16 -22 -29 -41 -62 -124 -92 -3 -0 -0 -0 -0 -0 -0 -120 -106 -58 -28 -17 -0 -0 -0 -5 -0 -0 -1 -0 -1 -0 -0 -0 -0 -0 -8 -5 -10 -8 -8 -2 -0 -0 -0 -0 -0 -8
-159 -218 -65 -17 -15 -21 -47 -97 -62 -72 -85 -130 -0 -0 -0 -0 -0 -0 -38 -115 -97 -49 -1 -0 -0 -0 -0 -13 -7 -0 -0 -5 -0 -0 -0 -0 -0 -8 -16 -1 -0 -4 -6 -5 -2 -0 -1 -4 -6
-175 -0 -36 -22 -14 -61 -62 -80 -69 -79 -126 -0 -0 -0 -0 -0 -74 -71 -61 -59 -52 -77 -2 -0 -0 -2 -6 -16 -14 -6 -3 -15 -0 -0 -0 -0 -0 -0 -1 -4 -1 -0 -7 -2 -6 -5 -9 -7 -6
-183 -110 -38 -36 -23 -24 -47 -42 -60 -87 -84 -14 -0 -0 -0 -88 -81 -146 -73 -59 -61 -32 -23 -0 -6 -3 -0 -4 -8 -18 -5 -2 -22 -18 -0 -1 -0 -0 -1 -4 -0 -0 -0 -2 -6 -5 -8 -12 -13
-183 -128 -21 -14 -28 -25 -46 -44 -91 -80 -121 -0 -0 -0 -0 -91 -102 -87 -70 -78 -110 -73 -49 -54 -40 -20 -31 -19 -13 -40 -21 -13 -23 -0 -13 -21 -10 -1 -7 -3 -0 -0 -0 -0 -7 -5 -7 -17 -34
-213 -57 -21 -13 -16 -28 -48 -41 -117 -189 -186 -243 -72 -0 -0 -131 -80 -83 -95 -107 -157 -109 -113 -120 -113 -50 -78 -48 -32 -43 -24 -2 -0 -1 -0 -19 -38 -59 -27 -44 -15 -11 -0 -0 -0 -16 -17 -18 -47
-94 -77 -59 -56 -33 -28 -51 -55 -106 -131 -167 -229 -232 -39 -152 -78 -73 -57 -77 -70 -176 -180 -149 -110 -92 -114 -92 -58 -60 -50 -42 -17 -16 -27 -30 -59 -49 -0 -149 -79 -41 -46 -13 -1 -0 -27 -21 -15 -49
-170 -92 -111 -69 -56 -29 -63 -88 -123 -104 -82 -19 -0 -203 -136 -94 -111 -67 -45 -61 -70 -112 -122 -117 -137 -164 -189 -142 -106 -94 -86 -56 -33 -63 -66 -94 -52 -69 -92 -64 -61 -41 -31 -38 -26 -4 -0 -0 -45
-62 -75 -54 -50 -68 -42 -55 -75 -83 -0 -0 -0 -0 -0 -111 -111 -96 -94 -76 -77 -90 -100 -59 -71 -103 -155 -112 -120 -82 -117 -95 -114 -91 -76 -69 -85 -91 -107 -78 -62 -44 -61 -61 -47 -0 -0 -0 -0 -49
-105 -119 -58 -77 -75 -58 -78 -79 -99 -0 -0 -0 -0 -0 -115 -98 -104 -153 -48 -0 -27 -72 -64 -64 -105 -99 -93 -94 -74 -75 -68 -78 -65 -88 -83 -100 -106 -86 -72 -50 -51 -49 -28 -73 -29 -0 -0 -0 -0
-115 -136 -94 -106 -79 -89 -0 -0 -0 -0 -0 -0 -0 -0 -131 -113 -97 -131 -0 -0 -133 -93 -133 -99 -86 -108 -111 -100 -91 -76 -68 -66 -78 -77 -69 -92 -87 -96 -87 -72 -69 -96 -76 -0 -0 -0 -80 -0 -0
-138 -0 -90 -92 -51 -97 -5 -0 -0 -0 -0 -0 -0 -0 -101 -135 -19 -111 -143 -0 -172 -158 -127 -116 -76 -129 -111 -85 -78 -61 -63 -83 -72 -78 -91 -102 -102 -94 -82 -86 -97 -137 -154 -111 -125 -118 -164 -0 -0
-67 -94 -16 -44 -30 -0 -0 -0 -0 -0 -0 -0 -0 -0 -0 -0 -0 -0 -0 -126 -156 -156 -132 -146 -110 -155 -102 -120 -129 -125 -63 -67 -68 -78 -106 -119 -87 -83 -68 -76 -119 -151 -147 -113 -163 -0 -0 -0 -63
-96 -5 -59 -48 -79 -44 -0 -0 -0 -0 -0 -0 -0 -0 -0 -0 -0 -0 -0 -0 -0 -0 -156 -149 -144 -163 -165 -97 -136 -169 -115 -65 -64 -77 -101 -83 -82 -47 -55 -99 -105 -129 -139 -104 -148 -166 -0 -0 -87
-0 -51 -61 -59 -24 -98 -0 -0 -0 -0 -0 -0 -0 -0 -0 -0 -0 -0 -0 -0 -0 -172 -239 -173 -205 -233 -253 -221 -170 -136 -119 -65 -62 -67 -107 -39 -44 -55 -53 -81 -99 -111 -130 -125 -132 -154 -159 -112 -108
-9 -59 -0 -110 -167 -81 -82 -0 -0 -0 -0 -0 -0 -0 -0 -0 -0 -0 -0 -294 -277 -241 -238 -216 -230 -304 -225 -206 -116 -113 -73 -57 -61 -64 -66 -90 -69 -59 -45 -54 -65 -81 -120 -142 -113 -118 -119 -69 -44
-91 -66 -6 -172 -205 -100 -115 -0 -0 -0 -0 -0 -0 -0 -0 -0 -67 -303 -306 -114 -353 -243 -214 -201 -265 -0 -168 -165 -141 -105 -79 -66 -72 -76 -71 -81 -61 -45 -32 -38 -52 -83 -108 -110 -97 -75 -77 -72 -41
-160 -102 -91 -71 -163 -170 -118 -0 -115 -0 -0 -0 -0 -0 -0 -186 -215 -251 -272 -250 -301 -334 -303 -218 -263 -306 -209 -142 -146 -132 -113 -88 -70 -71 -79 -69 -63 -36 -36 -31 -43 -65 -113 -101 -108 -72 -65 -45 -37
-15 -219 -170 -117 -141 -0 -0 -41 -211 -218 -0 -0 -0 -0 -0 -157 -47 -274 -266 -223 -205 -206 -279 -249 -249 -0 -221 -178 -148 -118 -62 -52 -68 -88 -86 -80 -63 -42 -38 -35 -39 -41 -93 -117 -117 -84 -63 -41 -23
-57 -152 -167 -136 -187 -172 -235 -118 -0 -243 -192 -193 -0 -0 -0 -0 -191 -270 -270 -242 -202 -212 -233 -267 -277 -251 -167 -164 -142 -115 -85 -73 -115 -115 -101 -121 -84 -81 -44 -47 -65 -66 -63 -91 -105 -94 -60 -46 -42
-188 -141 -203 -199 -179 -24 -0 -0 -156 -0 -180 -181 -61 -0 -0 -0 -0 -102 -170 -206 -224 -229 -250 -285 -268 -209 -205 -192 -150 -125 -101 -70 -74 -84 -77 -74 -178 -165 -89 -51 -46 -50 -60 -48 -50 -63 -64 -57 -50
-158 -163 -57 -55 -0 -78 -116 -111 -197 -0 -0 -0 -228 -0 -0 -0 -0 -0 -133 -186 -233 -228 -235 -208 -232 -200 -206 -204 -208 -172 -157 -124 -78 -75 -99 -67 -89 -105 -107 -89 -44 -55 -47 -53 -43 -48 -45 -36 -31
-129 -17 -0 -3 -24 -5 -0 -90 -127 -315 -254 -250 -295 -285 -0 -156 -145 -0 -129 -1 -5 -226 -225 -183 -206 -192 -194 -203 -188 -179 -157 -143 -118 -98 -104 -89 -94 -82 -119 -154 -83 -47 -50 -54 -40 -29 -33 -27 -22
-120 -50 -0 -68 -337 -0 -0 -0 -0 -234 -197 -311 -326 -279 -258 -4 -169 -142 -132 -171 -182 -192 -128 -195 -194 -200 -163 -161 -158 -163 -166 -155 -135 -102 -102 -93 -117 -91 -107 -137 -103 -89 -80 -58 -49 -48 -34 -28 -28
-77 -0 -0 -0 -0 -0 -0 -0 -0 -129 -156 -223 -249 -312 -269 -242 -15 -174 -117 -141 -179 -209 -199 -227 -194 -186 -160 -164 -145 -142 -161 -162 -142 -128 -122 -112 -108 -112 -112 -90 -92 -119 -139 -114 -59 -61 -70 -24 -32
-167 -0 -0 -0 -0 -0 -0 -0 -0 -198 -194 -164 -181 -233 -0 -227 -112 -137 -49 -222 -198 -41 -244 -187 -168 -178 -195 -177 -147 -153 -149 -158 -142 -138 -140 -161 -141 -124 -142 -143 -151 -186 -0 -62 -77 -42 -45 -37 -28
-0 -0 -0 -0 -0 -0 -0 -0 -0 -97 -276 -226 -154 -245 -360 -0 -0 -0 -0 -226 -247 -121 -203 -183 -171 -157 -151 -191 -160 -157 -171 -166 -151 -145 -142 -140 -137 -127 -120 -135 -165 -199 -0 -0 -195 -128 -89 -54 -53
Wind_Speed
18 17 14 14 9 12 12 18 20 18 19 19 20 10 9 10 15 12 10 18 12 19 25 23 23 24 24 27 26 26 26 26 25 24 25 26 26 26 26 26 27 27 27 26 26 27 27 28 29
17 16 14 14 13 18 10 18 17 18 16 14 8 10 7 8 10 5 6 7 11 13 12 18 18 19 23 22 25 25 25 24 25 24 25 25 26 25 24 24 25 26 27 26 26 26 26 27 28
13 15 14 12 11 18 18 18 18 13 16 12 9 9 12 10 7 8 2 11 9 4 3 5 14 16 18 21 23 25 24 24 24 24 24 24 23 24 23 23 23 25 25 24 25 25 25 26 26
13 13 13 11 17 17 16 16 15 16 13 11 11 10 13 10 7 5 6 6 9 5 2 8 12 15 17 20 20 24 23 24 24 24 23 22 21 22 21 20 21 23 21 24 24 24 24 25 27
15 15 12 10 12 15 14 16 16 15 12 12 11 11 8 12 5 3 2 3 5 4 2 1 7 15 18 20 21 23 23 23 23 23 21 20 20 19 18 18 18 21 21 22 24 23 24 24 25
15 15 13 15 13 15 15 15 17 13 12 12 12 11 10 4 4 2 2 5 1 7 1 1 9 18 20 18 21 22 22 22 21 20 20 19 18 16 16 14 15 18 21 21 9 21 22 23 23
12 13 12 12 16 16 14 14 13 13 12 12 12 12 8 6 4 2 1 1 2 3 2 2 7 15 20 18 20 21 21 20 19 19 19 18 16 15 17 10 11 7 21 21 7 8 16 22 22
14 14 13 13 16 17 16 14 13 13 14 13 11 10 7 8 0 1 5 5 1 3 8 5 10 3 15 20 20 20 20 19 18 18 18 18 17 16 16 13 11 19 19 20 20 12 14 18 21
16 14 14 15 14 16 16 15 15 15 13 13 10 12 11 8 4 2 3 1 6 7 12 9 11 12 17 24 21 20 19 18 17 17 17 17 18 16 15 16 16 13 18 20 20 19 12 18 19
6 12 15 16 16 12 16 15 14 14 13 16 14 12 16 10 6 4 3 3 7 13 14 16 11 19 25 23 21 20 19 17 16 15 15 15 14 13 14 15 19 22 19 21 21 20 18 16 18
12 13 17 15 16 14 15 17 15 14 12 10 12 19 19 14 7 3 7 11 19 6 12 18 14 26 25 23 21 20 18 16 15 14 14 14 14 13 13 18 18 22 23 23 22 21 20 20 19
16 15 13 17 19 9 14 17 18 13 15 15 18 22 21 19 12 10 9 8 21 18 23 19 26 26 24 22 21 19 17 16 15 14 13 13 13 11 13 15 20 22 23 24 24 22 21 21 19
16 17 13 15 17 14 17 19 19 20 19 20 22 28 30 27 24 6 4 5 5 3 24 28 27 26 23 22 21 19 18 17 14 13 13 14 14 13 12 14 18 22 23 25 24 22 22 22 20
17 16 16 13 15 14 17 19 14 19 21 23 28 32 31 31 31 31 29 32 31 23 28 28 27 25 23 21 20 20 19 16 15 15 14 14 15 13 13 14 18 21 22 23 23 22 22 22 21
14 14 17 18 15 14 15 17 19 22 22 25 29 30 29 30 30 30 31 30 29 28 27 27 26 25 22 21 20 20 18 15 15 16 15 15 15 14 14 15 18 21 21 22 21 21 23 23 21
12 12 15 15 15 14 17 16 19 21 23 25 28 29 29 29 30 29 30 28 27 26 27 26 26 24 22 21 20 19 17 15 15 14 15 15 15 14 14 15 18 20 21 20 19 20 21 21 20
10 14 12 14 15 16 16 16 20 22 23 26 28 28 28 28 28 29 29 28 26 27 27 25 25 25 23 22 21 21 19 17 16 15 16 15 15 15 16 15 17 19 19 19 18 18 19 18 19
10 13 16 17 17 15 14 14 22 24 23 24 25 27 28 28 29 29 29 27 26 27 27 25 24 25 24 22 21 21 19 18 17 16 15 16 15 15 15 15 17 18 18 17 17 17 17 16 18
27 18 18 18 18 18 18 17 23 25 24 24 24 25 28 28 29 28 27 26 26 27 27 26 25 26 24 22 21 20 19 17 17 17 16 15 16 15 15 15 16 15 17 17 16 15 16 17 15
17 9 6 13 15 13 14 19 23 25 25 25 25 25 26 28 28 28 28 25 27 26 26 26 26 27 25 22 22 20 19 18 16 16 17 16 14 16 16 15 15 15 15 17 17 14 12 14 14
11 10 14 11 10 12 13 18 21 26 26 25 25 25 26 27 27 27 27 29 26 25 25 25 25 25 24 22 22 22 21 18 17 18 16 15 15 16 13 14 14 14 14 15 16 17 16 13 13
10 14 16 13 14 15 14 16 19 21 23 26 27 29 27 28 28 27 28 30 29 25 23 24 22 23 23 22 22 21 19 17 16 15 15 13 11 11 10 12 12 13 13 14 15 17 16 12 11
14 17 20 18 12 11 14 13 14 18 20 23 25 27 30 31 29 28 28 32 29 22 22 22 21 23 22 21 22 21 20 19 17 16 15 12 10 9 8 9 10 11 11 13 14 14 14 9 6
15 13 10 12 14 13 12 12 13 16 18 20 21 25 28 28 30 31 30 30 26 19 16 19 21 23 21 21 20 20 18 17 16 13 13 12 12 10 8 7 6 9 9 11 14 15 11 8 4
10 13 14 14 8 14 14 13 15 12 11 13 18 24 22 27 25 19 31 30 19 13 15 18 20 23 19 20 22 19 17 15 14 14 12 9 9 9 10 8 4 5 6 8 7 11 12 7 6
9 9 15 15 9 9 12 15 14 11 11 11 16 19 22 17 14 17 5 18 25 9 14 17 19 22 20 19 19 19 14 13 11 11 10 8 9 8 7 7 9 6 3 3 6 3 1 9 4
5 22 14 13 15 16 13 16 14 11 9 14 17 19 14 10 4 13 9 7 9 22 21 19 18 20 21 20 18 18 17 13 11 11 12 12 9 8 5 4 6 5 3 3 3 3 3 14 9
16 9 14 18 18 19 19 19 16 15 14 13 16 18 18 12 4 7 9 17 20 24 24 16 17 18 19 18 17 18 18 16 12 9 11 10 9 6 2 2 2 4 3 3 7 2 7 16 20
14 18 15 12 16 20 21 17 14 18 17 16 17 16 15 16 19 3 17 21 23 26 27 8 13 14 12 16 16 16 16 17 14 16 13 9 5 2 2 2 1 1 10 21 25 27 24 25 28
21 17 18 22 24 24 22 21 12 18 16 14 16 17 18 21 24 29 14 19 24 24 24 2 9 9 13 8 11 18 15 12 14 15 17 5 1 5 2 3 3 16 22 22 22 25 24 23 27
Wind_Direction
145 167 113 181 216 352 7 65 117 72 84 170 114 53 61 271 243 272 223 103 87 107 123 117 107 105 92 114 111 104 103 106 90 76 79 84 90 96 93 95 100 98 103 113 117 108 114 108 114
172 169 185 194 4 66 295 94 82 86 84 65 15 33 300 309 291 8 237 241 91 94 85 97 90 82 90 78 91 93 103 95 91 81 82 83 90 87 86 85 91 110 107 107 108 121 117 114 110
230 158 223 241 306 51 72 100 85 48 85 59 19 291 271 309 289 65 138 92 83 66 48 57 80 78 78 80 84 95 90 85 90 90 90 82 83 85 85 87 102 113 96 91 97 115 129 123 115
292 270 243 305 49 53 66 91 70 82 60 354 33 349 288 282 308 287 96 84 82 70 44 75 77 80 80 83 80 92 82 84 91 94 83 79 78 79 82 74 83 110 83 99 94 95 129 132 121
312 333 293 328 251 350 49 79 82 75 36 21 5 352 343 279 343 66 79 92 81 70 300 343 65 84 91 90 88 93 91 87 90 91 80 77 74 69 60 64 70 96 91 90 105 98 124 133 121
327 331 344 14 333 16 63 76 88 41 42 29 7 22 331 27 58 31 118 101 40 80 298 345 77 98 102 90 94 98 104 92 93 87 83 73 68 56 52 44 56 80 113 103 5 102 121 145 139
273 304 280 296 5 37 54 90 76 55 52 27 54 3 356 79 74 45 193 196 53 277 49 312 69 93 111 95 103 110 114 99 96 95 86 74 54 48 82 355 34 317 159 159 62 317 64 156 157
265 290 312 286 42 20 66 58 55 38 33 46 50 24 92 109 44 64 90 84 317 273 248 261 244 353 100 119 124 122 125 108 110 103 99 93 95 86 83 303 317 126 208 193 170 245 220 188 145
303 314 316 318 307 9 60 46 25 30 57 42 65 19 109 110 113 137 106 11 245 256 239 248 249 248 114 172 145 137 134 122 122 118 106 83 81 100 112 258 267 287 238 195 186 202 264 195 194
4 304 291 262 308 60 77 45 51 52 49 12 26 59 111 113 119 132 162 112 233 229 234 228 249 219 171 163 166 156 150 137 132 120 105 88 98 112 134 210 240 185 238 204 196 197 210 219 207
322 315 289 279 271 195 75 40 45 60 50 67 80 111 116 115 114 200 230 230 218 257 242 225 237 173 169 175 176 173 163 150 138 128 135 116 121 105 133 197 186 207 208 200 201 203 203 201 209
230 294 290 264 276 205 33 32 40 68 41 62 98 112 112 115 110 230 236 237 219 230 217 230 197 172 175 176 187 183 172 163 148 148 133 142 164 150 179 186 184 190 205 196 191 202 191 203 191
293 296 316 293 338 359 32 38 61 49 60 74 100 125 136 128 129 123 94 256 264 80 216 199 173 177 181 182 188 191 186 178 162 153 158 154 172 181 174 175 182 178 189 191 184 189 188 190 202
289 301 252 281 279 296 21 34 85 81 81 95 121 154 147 150 153 158 163 123 179 213 194 178 180 180 186 191 181 184 200 179 169 161 169 158 173 170 183 171 175 175 185 175 172 172 184 181 185
353 245 246 270 296 360 307 328 94 98 96 113 140 152 151 164 169 161 185 188 183 191 198 192 176 185 182 180 167 168 164 117 131 154 170 165 163 186 188 175 172 174 167 156 149 158 169 175 184
303 305 195 308 295 322 340 71 117 112 104 126 145 156 162 168 174 174 183 195 198 204 189 177 176 174 174 174 169 167 161 141 148 144 157 153 161 177 178 168 168 167 155 136 128 134 141 158 167
233 287 288 260 296 286 357 70 139 130 130 137 145 159 164 169 175 180 187 188 191 186 184 176 173 180 180 187 183 187 172 168 176 154 178 171 138 102 142 164 178 157 139 131 130 126 137 143 167
268 314 257 251 258 277 351 137 143 146 137 140 146 159 167 175 179 184 189 194 192 182 183 181 173 181 183 184 191 193 189 182 185 180 178 175 156 109 96 147 148 119 121 123 126 130 133 129 148
54 12 273 250 246 260 260 157 147 152 152 149 154 155 167 175 180 184 185 187 192 189 184 181 177 181 180 181 187 183 178 177 180 184 182 161 167 142 114 125 111 101 125 126 127 120 128 138 128
28 174 165 325 297 78 280 138 150 157 163 161 159 170 170 184 194 193 189 177 180 183 181 179 182 184 183 180 181 179 180 189 187 181 177 167 143 152 159 125 122 101 113 128 129 115 107 125 119
85 144 133 203 264 277 267 201 154 175 180 179 178 175 185 185 189 192 194 194 178 174 173 172 175 180 182 178 183 199 220 203 196 188 168 161 155 163 121 126 124 112 118 129 134 140 136 119 120
89 148 120 207 172 186 241 162 164 162 174 185 186 186 188 193 196 196 195 204 185 171 161 164 166 174 180 175 177 179 179 181 173 168 161 150 116 107 76 116 118 120 117 131 137 151 150 132 122
278 105 113 142 202 251 256 279 263 143 170 181 183 183 189 197 199 197 188 193 184 162 160 159 162 171 171 171 179 177 186 191 193 178 180 148 118 99 54 92 108 120 116 132 143 146 150 130 78
51 36 338 236 245 231 203 234 246 187 176 188 181 184 185 188 191 205 198 188 175 162 151 157 168 176 173 174 174 178 179 182 180 162 159 150 148 133 103 82 79 119 124 135 155 162 150 144 112
21 41 339 296 248 249 234 254 225 175 169 186 183 183 179 183 179 173 195 192 163 152 156 163 170 184 177 181 190 181 179 175 173 176 160 132 127 122 137 133 105 103 122 138 129 156 168 149 155
94 21 290 302 289 263 251 245 229 219 233 191 173 163 169 170 173 172 223 248 183 158 165 170 174 186 183 183 187 188 176 173 171 168 162 148 154 144 111 130 149 146 75 45 351 27 82 326 169
346 270 312 267 270 283 227 247 224 182 197 112 117 135 146 149 184 182 206 257 287 250 186 182 184 187 188 187 187 192 189 178 175 173 177 180 165 162 141 97 133 114 50 18 4 0 351 318 322
265 117 298 279 270 283 280 269 199 156 139 122 118 134 126 117 100 239 214 254 269 271 211 184 183 186 186 183 185 191 192 187 179 173 183 177 175 168 125 70 57 6 4 350 335 295 324 316 306
283 270 302 325 314 266 291 252 160 161 147 125 102 113 128 127 140 194 244 249 259 262 261 171 174 176 176 179 181 184 186 190 181 191 189 180 164 110 65 23 24 275 333 311 299 295 301 301 295
277 282 287 282 274 271 273 250 128 145 136 104 112 94 115 135 148 181 248 251 251 269 270 192 168 173 178 179 180 192 190 185 191 196 206 189 266 339 311 220 224 321 320 322 320 311 311 308 302